• In Belgium
  • List of Countries
  • For 7 days
  • Water Temperature
  • Satellite Maps
  • Weather Map
  • Weather Widgets
  • user-avatar
    Login

    Hourly Weather Pinsk

    Today, 25 February, Sunday

    Time Temperature Precipitation Wind Pressure Humidity
    00:00 -14°C° 0.1 mm 5 mps 756 mmHg 87%
    01:00 -15°C° 0.1 mm 5 mps 756 mmHg 88%
    02:00 -15°C° 0 mm 5 mps 756 mmHg 88%
    03:00 -16°C° 0 mm 4 mps 756 mmHg 89%
    04:00 -16°C° 0 mm 4 mps 756 mmHg 90%
    05:00 -16°C° 0 mm 4 mps 756 mmHg 90%
    06:00 -17°C° 0 mm 4 mps 756 mmHg 91%
    07:00 -17°C° 0 mm 4 mps 757 mmHg 91%
    08:00 -18°C° 0 mm 4 mps 757 mmHg 91%
    09:00 -16°C° 0 mm 3 mps 757 mmHg 89%
    10:00 -16°C° 0 mm 3 mps 757 mmHg 86%
    11:00 -15°C° 0 mm 3 mps 757 mmHg 84%
    12:00 -14°C° 0 mm 3 mps 757 mmHg 81%
    13:00 -14°C° 0 mm 3 mps 757 mmHg 79%
    14:00 -10°C° 0 mm 2 mps 757 mmHg 74%
    15:00 -12°C° 0 mm 2 mps 757 mmHg 76%
    16:00 -12°C° 0 mm 2 mps 757 mmHg 77%
    17:00 -13°C° 0 mm 2 mps 757 mmHg 79%
    18:00 -13°C° 0 mm 2 mps 757 mmHg 82%
    19:00 -14°C° 0 mm 2 mps 757 mmHg 86%
    20:00 -15°C° 0 mm 2 mps 757 mmHg 89%
    21:00 -16°C° 0 mm 2 mps 757 mmHg 90%
    22:00 -14°C° 0 mm 1 mps 757 mmHg 91%
    23:00 -15°C° 0 mm 1 mps 757 mmHg 92%

    Tomorrow, 26 February, Monday

    Time Temperature Precipitation Wind Pressure Humidity
    00:00 -15°C° 0 mm 1 mps 757 mmHg 92%
    01:00 -15°C° 0 mm 1 mps 757 mmHg 93%
    02:00 -15°C° 0 mm 1 mps 757 mmHg 93%
    03:00 -15°C° 0 mm 1 mps 757 mmHg 93%
    04:00 -16°C° 0 mm 1 mps 757 mmHg 93%
    05:00 -16°C° 0 mm 1 mps 757 mmHg 93%
    06:00 -16°C° 0 mm 1 mps 757 mmHg 93%
    07:00 -16°C° 0 mm 1 mps 757 mmHg 93%
    08:00 -16°C° 0 mm 1 mps 757 mmHg 92%
    09:00 -15°C° 0 mm 1 mps 757 mmHg 88%
    10:00 -14°C° 0 mm 1 mps 757 mmHg 84%
    11:00 -13°C° 0 mm 1 mps 757 mmHg 79%
    12:00 -12°C° 0 mm 1 mps 757 mmHg 77%
    13:00 -12°C° 0 mm 1 mps 757 mmHg 74%
    14:00 -11°C° 0 mm 1 mps 756 mmHg 72%
    15:00 -12°C° 0 mm 1 mps 756 mmHg 74%
    16:00 -12°C° 0 mm 1 mps 756 mmHg 76%
    17:00 -12°C° 0 mm 1 mps 756 mmHg 78%
    18:00 -13°C° 0 mm 1 mps 756 mmHg 82%
    19:00 -14°C° 0 mm 1 mps 756 mmHg 85%
    20:00 -14°C° 0 mm 1 mps 756 mmHg 89%
    21:00 -17°C° 0 mm 2 mps 756 mmHg 90%
    22:00 -17°C° 0 mm 2 mps 756 mmHg 91%
    23:00 -18°C° 0 mm 2 mps 756 mmHg 92%

    Day after tomorrow, 27 February, Tuesday

    Time Temperature Precipitation Wind Pressure Humidity
    00:00 -18°C° 0 mm 2 mps 756 mmHg 92%
    01:00 -18°C° 0 mm 2 mps 756 mmHg 92%
    02:00 -18°C° 0 mm 2 mps 756 mmHg 93%
    03:00 -19°C° 0 mm 2 mps 756 mmHg 93%
    04:00 -19°C° 0 mm 2 mps 756 mmHg 93%
    05:00 -19°C° 0 mm 2 mps 755 mmHg 94%
    06:00 -21°C° 0 mm 3 mps 756 mmHg 94%
    07:00 -21°C° 0 mm 3 mps 756 mmHg 93%
    08:00 -21°C° 0 mm 3 mps 756 mmHg 93%
    09:00 -19°C° 0 mm 3 mps 756 mmHg 90%
    10:00 -19°C° 0 mm 4 mps 757 mmHg 87%
    11:00 -18°C° 0 mm 4 mps 757 mmHg 84%
    12:00 -17°C° 0 mm 4 mps 757 mmHg 82%
    13:00 -16°C° 0 mm 4 mps 757 mmHg 80%
    14:00 -17°C° 0 mm 5 mps 756 mmHg 78%
    15:00 -17°C° 0 mm 5 mps 756 mmHg 80%
    16:00 -17°C° 0 mm 5 mps 756 mmHg 81%
    17:00 -17°C° 0 mm 5 mps 756 mmHg 83%
    18:00 -18°C° 0 mm 5 mps 757 mmHg 83%
    19:00 -18°C° 0 mm 6 mps 757 mmHg 84%
    20:00 -18°C° 0 mm 6 mps 757 mmHg 85%
    21:00 -18°C° 0 mm 6 mps 757 mmHg 85%
    22:00 -18°C° 0 mm 6 mps 757 mmHg 85%
    23:00 -18°C° 0 mm 6 mps 757 mmHg 86%

    28 February, Wednesday

    Time Temperature Precipitation Wind Pressure Humidity
    00:00 -20°C° 0.1 mm 6 mps 757 mmHg 86%
    01:00 -20°C° 0.1 mm 6 mps 757 mmHg 87%
    02:00 -20°C° 0.1 mm 6 mps 757 mmHg 87%
    03:00 -20°C° 0.2 mm 6 mps 756 mmHg 88%
    04:00 -20°C° 0.2 mm 6 mps 756 mmHg 88%
    05:00 -20°C° 0.2 mm 6 mps 756 mmHg 88%
    06:00 -20°C° 0.2 mm 6 mps 756 mmHg 88%
    07:00 -20°C° 0.2 mm 6 mps 756 mmHg 88%
    08:00 -21°C° 0.2 mm 6 mps 756 mmHg 88%
    09:00 -20°C° 0.2 mm 6 mps 756 mmHg 87%
    10:00 -20°C° 0.2 mm 6 mps 756 mmHg 86%
    11:00 -20°C° 0.2 mm 6 mps 756 mmHg 85%
    12:00 -18°C° 0.2 mm 6 mps 756 mmHg 84%
    13:00 -18°C° 0.2 mm 6 mps 756 mmHg 83%
    14:00 -18°C° 0.2 mm 5 mps 756 mmHg 82%
    15:00 -18°C° 0.1 mm 5 mps 756 mmHg 83%
    16:00 -18°C° 0.1 mm 5 mps 756 mmHg 84%
    17:00 -18°C° 0.1 mm 5 mps 756 mmHg 86%
    18:00 -17°C° 0.1 mm 4 mps 756 mmHg 87%
    19:00 -17°C° 0.1 mm 4 mps 756 mmHg 88%
    20:00 -17°C° 0.1 mm 4 mps 756 mmHg 90%
    21:00 -17°C° 0.1 mm 4 mps 756 mmHg 90%
    22:00 -16°C° 0.1 mm 3 mps 756 mmHg 91%
    23:00 -16°C° 0.1 mm 3 mps 756 mmHg 91%

    1 March, Thursday

    Time Temperature Precipitation Wind Pressure Humidity
    00:00 -16°C° 0.1 mm 3 mps 756 mmHg 91%
    01:00 -16°C° 0.1 mm 3 mps 756 mmHg 92%
    02:00 -17°C° 0.1 mm 3 mps 756 mmHg 92%
    03:00 -17°C° 0.1 mm 3 mps 756 mmHg 92%
    04:00 -17°C° 0.1 mm 3 mps 755 mmHg 93%
    05:00 -16°C° 0.1 mm 2 mps 755 mmHg 93%
    06:00 -16°C° 0 mm 2 mps 755 mmHg 93%
    07:00 -16°C° 0 mm 2 mps 756 mmHg 93%
    08:00 -16°C° 0 mm 2 mps 756 mmHg 93%
    09:00 -16°C° 0 mm 2 mps 756 mmHg 89%
    10:00 -15°C° 0 mm 2 mps 756 mmHg 85%
    11:00 -14°C° 0 mm 2 mps 756 mmHg 82%
    12:00 -13°C° 0 mm 2 mps 756 mmHg 80%
    13:00 -13°C° 0 mm 2 mps 756 mmHg 78%
    14:00 -12°C° 0 mm 2 mps 755 mmHg 76%
    15:00 -12°C° 0 mm 2 mps 755 mmHg 79%
    16:00 -12°C° 0 mm 2 mps 755 mmHg 81%
    17:00 -12°C° 0 mm 2 mps 755 mmHg 83%
    18:00 -13°C° 0 mm 2 mps 755 mmHg 86%
    19:00 -14°C° 0 mm 2 mps 754 mmHg 89%
    20:00 -15°C° 0 mm 2 mps 754 mmHg 92%
    21:00 -15°C° 0 mm 2 mps 754 mmHg 93%
    22:00 -15°C° 0 mm 2 mps 754 mmHg 94%
    23:00 -15°C° 0 mm 2 mps 754 mmHg 95%

    2 March, Friday

    Time Temperature Precipitation Wind Pressure Humidity
    00:00 -15°C° 0 mm 2 mps 753 mmHg 95%
    01:00 -15°C° 0 mm 2 mps 753 mmHg 96%
    02:00 -14°C° 0 mm 2 mps 753 mmHg 96%
    03:00 -13°C° 0 mm 1 mps 752 mmHg 96%
    04:00 -13°C° 0 mm 1 mps 752 mmHg 96%
    05:00 -13°C° 0 mm 1 mps 752 mmHg 97%
    06:00 -13°C° 0 mm 1 mps 752 mmHg 96%
    07:00 -12°C° 0 mm 1 mps 752 mmHg 96%
    08:00 -12°C° 0 mm 0 mps 751 mmHg 96%
    09:00 -11°C° 0 mm 0 mps 751 mmHg 92%
    10:00 -10°C° 0 mm 0 mps 751 mmHg 88%
    11:00 -9°C° 0 mm 0 mps 751 mmHg 84%
    12:00 -8°C° 0 mm 0 mps 751 mmHg 82%
    13:00 -8°C° 0 mm 0 mps 750 mmHg 81%
    14:00 -7°C° 0 mm 0 mps 750 mmHg 79%
    15:00 -7°C° 0 mm 1 mps 750 mmHg 80%
    16:00 -7°C° 0 mm 1 mps 749 mmHg 82%
    17:00 -7°C° 0 mm 1 mps 749 mmHg 83%
    18:00 -8°C° 0 mm 1 mps 749 mmHg 86%
    19:00 -9°C° 0 mm 1 mps 749 mmHg 88%
    20:00 -10°C° 0 mm 1 mps 749 mmHg 91%
    21:00 -11°C° 0 mm 1 mps 749 mmHg 92%
    22:00 -11°C° 0 mm 1 mps 749 mmHg 93%
    23:00 -12°C° 0 mm 1 mps 748 mmHg 94%
    Show more